{"data":{"norad_id":55012,"epoch":"2026-09-21T17:27:14.554656Z","epoch_age_seconds":58824,"freshness":"FRESH","line1":"1 55012U 23001D   26264.72725179  .00042442  00000+0  55316-3 0  9997","line2":"2 55012  97.3146 337.6029 0005681 106.5805 253.6075 15.58593614207543","mean_motion":15.58593614,"eccentricity":0.0005681,"inclination_deg":97.3146,"raan_deg":337.6029,"arg_perigee_deg":106.5805,"mean_anomaly_deg":253.6075,"bstar":0.00055316,"rev_number":20754,"period_min":92.390985505475,"perigee_km":387.88055396085,"apogee_km":395.5724728848,"semimajor_km":6769.8635134228,"source":"CELESTRAK","updated_at":"2026-09-22T09:00:25.264759Z"}}